FW8459 Weather Reports


Display with metric or nautical units.
time (UTC)temp
F
wind
direction
speed
MPH
gust
MPH
rain 1hr
in
rain 24hr
in
rain mn
in
humidity
%
barometer
mb
20260904035850 69 324 1.0 2.0 0.00 0.00 0.00 52 1019.5
20260904035346 69 198 0.0 1.0 0.00 0.00 0.00 52 1019.5
20260904034845 69 314 0.0 1.0 0.00 0.00 0.00 52 1019.6
20260904034341 69 229 3.0 3.0 0.00 0.00 0.00 52 1019.8
20260904033836 68 263 0.0 1.0 0.00 0.00 0.00 53 1019.8
20260904033332 68 252 3.0 3.0 0.00 0.00 0.00 53 1019.9
20260904032828 68 323 2.0 3.0 0.00 0.00 0.00 54 1020.2
20260904032323 66 247 3.0 3.0 0.00 0.00 0.00 59 1020.6
20260904031816 69 230 2.0 2.0 0.00 0.00 0.00 56 1020.7
20260904031312 69 313 1.0 1.0 0.00 0.00 0.00 56 1020.6
20260904030808 68 261 1.0 1.0 0.00 0.00 0.00 57 1020.7
20260904030303 67 298 0.0 1.0 0.00 0.00 0.00 59 1021.1
20260904025759 67 170 3.0 3.0 0.00 0.00 0.00 58 1021.0
20260904025255 66 276 0.0 1.0 0.00 0.00 0.00 61 1021.4
20260904024749 65 224 2.0 2.0 0.00 0.00 0.00 60 1021.3
20260904024245 66 221 3.0 5.0 0.00 0.00 0.00 59 1021.4
20260904023741 66 55 1.0 2.0 0.00 0.00 0.00 58 1021.6
20260904023237 67 234 0.0 0.0 0.00 0.00 0.00 58 1021.9
20260904022736 67 285 2.0 3.0 0.00 0.00 0.00 56 1021.9
20260904022234 67 66 1.0 2.0 0.00 0.00 0.00 59 1022.1
20260904021730 65 320 0.0 0.0 0.00 0.00 0.00 59 1022.0
20260904021230 65 286 3.0 5.0 0.00 0.00 0.00 59 1022.2
20260904020726 65 325 0.0 1.0 0.00 0.00 0.00 59 1022.1
20260904020225 66 197 3.0 5.0 0.00 0.00 0.00 56 1022.1
20260904015723 66 318 0.0 0.0 0.00 0.00 0.00 59 1022.1
20260904015219 65 324 0.0 0.0 0.00 0.00 0.00 58 1022.2
20260904014717 66 218 1.0 1.0 0.00 0.00 0.00 57 1022.1
20260904014213 66 286 0.0 1.0 0.00 0.00 0.00 59 1022.1
20260904013709 65 288 1.0 1.0 0.00 0.00 0.00 58 1022.2
20260904013205 64 306 1.0 2.0 0.00 0.00 0.00 61 1022.3
20260904012701 65 169 1.0 2.0 0.00 0.00 0.00 58 1022.2
20260904012159 64 18 1.0 1.0 0.00 0.00 0.00 62 1022.7
20260904011659 62 324 0.0 1.0 0.00 0.00 0.00 64 1022.6
20260904011154 62 199 1.0 1.0 0.00 0.00 0.00 65 1022.8
20260904010650 63 266 2.0 2.0 0.00 0.00 0.00 63 1022.8
20260904010146 63 173 2.0 2.0 0.00 0.00 0.00 62 1023.0
20260904005641 64 350 2.0 2.0 0.00 0.00 0.00 63 1023.1
20260904005137 62 164 0.0 1.0 0.00 0.00 0.00 64 1023.4
20260904004632 60 229 1.0 1.0 0.00 0.00 0.00 66 1023.0
20260904004131 61 209 3.0 5.0 0.00 0.00 0.00 66 1023.5
20260904003628 62 234 3.0 3.0 0.00 0.00 0.00 63 1023.4
20260904003124 62 164 3.0 3.0 0.00 0.00 0.00 64 1023.4
20260904002620 62 197 1.0 1.0 0.00 0.00 0.00 64 1023.4
20260904002120 62 9 1.0 1.0 0.00 0.00 0.00 66 1023.5
20260904001615 62 339 0.0 0.0 0.00 0.00 0.00 64 1023.6
20260904001114 62 246 0.0 1.0 0.00 0.00 0.00 65 1023.7
20260904000609 61 230 1.0 2.0 0.00 0.00 0.00 66 1023.7
20260904000105 61 186 1.0 1.0 0.00 0.00 0.00 66 1023.6
20260903235604 61 335 1.0 2.0 0.00 0.00 0.00 66 1023.8
20260903235100 60 43 1.0 1.0 0.00 0.00 0.00 67 1023.8
20260903234555 60 15 0.0 1.0 0.00 0.00 0.00 67 1023.6
20260903234051 60 220 1.0 2.0 0.00 0.00 0.00 67 1023.4
20260903233547 59 355 0.0 0.0 0.00 0.00 0.00 69 1023.2
20260903233042 58 289 0.0 0.0 0.00 0.00 0.00 71 1023.2
20260903232538 58 208 1.0 2.0 0.00 0.00 0.00 70 1023.2
20260903232033 59 254 2.0 2.0 0.00 0.00 0.00 69 1023.2
20260903231527 58 13 0.0 0.0 0.00 0.00 0.00 70 1023.5
20260903231021 58 302 0.0 0.0 0.00 0.00 0.00 70 1023.6
20260903230518 58 7 0.0 1.0 0.00 0.00 0.00 70 1023.6
20260903230016 57 30 1.0 1.0 0.00 0.00 0.00 70 1023.7
20260903225514 55 342 0.0 0.0 0.00 0.00 0.00 74 1023.5
20260903225010 56 47 1.0 1.0 0.00 0.00 0.00 72 1023.8
20260903224506 55 331 0.0 0.0 0.00 0.00 0.00 75 1023.8
20260903224002 54 21 1.0 1.0 0.00 0.00 0.00 75 1023.7
20260903223501 52 30 1.0 1.0 0.00 0.00 0.00 77 1023.7
20260903223000 52 224 0.0 0.0 0.00 0.00 0.00 78 1023.8
20260903222455 53 30 1.0 2.0 0.00 0.00 0.00 76 1023.8
20260903221954 52 23 1.0 1.0 0.00 0.00 0.00 78 1023.7
20260903221449 51 204 1.0 2.0 0.00 0.00 0.00 78 1023.8
20260903220947 51 59 1.0 2.0 0.00 0.00 0.00 79 1023.7
20260903220441 51 38 0.0 0.0 0.00 0.00 0.00 80 1023.9
20260903215939 49 357 0.0 0.0 0.00 0.00 0.00 85 1023.8
20260903215436 48 149 0.0 1.0 0.00 0.00 0.00 88 1023.8
20260903214934 48 352 0.0 0.0 0.00 0.00 0.00 97 1024.0
20260903214430 46 338 0.0 0.0 0.00 0.00 0.00 99 1023.7
20260903213929 45 22 0.0 0.0 0.00 0.00 0.00 99 1023.8
20260903213425 43 354 0.0 0.0 0.00 0.00 0.00 99 1023.9
20260903212921 41 266 0.0 0.0 0.00 0.00 0.00 99 1023.8
20260903212416 40 266 0.0 0.0 0.00 0.00 0.00 99 1023.7
20260903211916 40 292 0.0 0.0 0.00 0.00 0.00 99 1023.6
20260903211412 39 306 0.0 0.0 0.00 0.00 0.00 99 1023.7
20260903210908 39 316 0.0 0.0 0.00 0.00 0.00 99 1023.6
20260903210407 38 316 0.0 0.0 0.00 0.00 0.00 99 1023.5
20260903205903 38 283 0.0 0.0 0.00 0.00 0.00 99 1023.4
20260903205402 38 217 0.0 0.0 0.00 0.00 0.00 99 1023.2
20260903204857 37 303 0.0 0.0 0.00 0.00 0.00 99 1023.1
20260903204353 37 286 0.0 0.0 0.00 0.00 0.00 99 1023.1
20260903203848 37 302 0.0 0.0 0.00 0.00 0.00 99 1022.8
20260903203344 37 274 0.0 0.0 0.00 0.00 0.00 99 1023.0
20260903202843 37 268 0.0 0.0 0.00 0.00 0.00 99 1023.1
20260903202340 37 265 0.0 0.0 0.00 0.00 0.00 99 1022.8
20260903201839 37 277 0.0 0.0 0.00 0.00 0.00 99 1022.9
20260903201335 37 273 0.0 0.0 0.00 0.00 0.00 99 1022.9
20260903200833 37 318 0.0 0.0 0.00 0.00 0.00 99 1022.9
20260903200329 37 282 0.0 0.0 0.00 0.00 0.00 98 1022.7
20260903195824 37 281 0.0 0.0 0.00 0.00 0.00 98 1022.7
20260903195320 37 279 0.0 0.0 0.00 0.00 0.00 98 1022.6
20260903194815 36 284 0.0 0.0 0.00 0.00 0.00 98 1022.7
20260903194310 36 286 0.0 0.0 0.00 0.00 0.00 98 1022.3
20260903193806 37 286 0.0 0.0 0.00 0.00 0.00 98 1022.5
20260903193302 36 293 0.0 0.0 0.00 0.00 0.00 98 1022.5
20260903192757 37 286 0.0 0.0 0.00 0.00 0.00 98 1022.4
20260903192253 37 286 0.0 0.0 0.00 0.00 0.00 98 1022.5
20260903191748 37 288 0.0 0.0 0.00 0.00 0.00 98 1022.4
20260903191238 37 293 0.0 0.0 0.00 0.00 0.00 98 1022.3
20260903190733 38 286 0.0 0.0 0.00 0.00 0.00 98 1022.1
20260903190232 38 281 0.0 0.0 0.00 0.00 0.00 97 1022.2
20260903185728 38 284 0.0 0.0 0.00 0.00 0.00 98 1022.2
20260903185222 39 284 0.0 0.0 0.00 0.00 0.00 98 1022.2
20260903184719 38 290 0.0 0.0 0.00 0.00 0.00 97 1022.1
20260903184215 38 295 0.0 0.0 0.00 0.00 0.00 97 1022.0
20260903183714 39 293 0.0 0.0 0.00 0.00 0.00 98 1021.8
20260903183209 38 303 0.0 0.0 0.00 0.00 0.00 98 1022.0
20260903182707 38 292 0.0 0.0 0.00 0.00 0.00 97 1021.6
20260903182203 38 293 0.0 0.0 0.00 0.00 0.00 97 1021.8
20260903181702 39 285 0.0 0.0 0.00 0.00 0.00 97 1021.5
20260903181156 39 284 0.0 0.0 0.00 0.00 0.00 97 1021.4
20260903180652 39 278 0.0 0.0 0.00 0.00 0.00 96 1021.4
20260903180151 39 287 0.0 0.0 0.00 0.00 0.00 96 1021.3
20260903175645 39 282 0.0 0.0 0.00 0.00 0.00 96 1021.3
20260903175144 39 291 0.0 0.0 0.00 0.00 0.00 96 1021.3
20260903174639 39 291 0.0 0.0 0.00 0.00 0.00 96 1021.5
20260903174134 39 291 0.0 0.0 0.00 0.00 0.00 96 1021.4
20260903173629 40 293 0.0 0.0 0.00 0.00 0.00 96 1021.6
20260903173126 40 289 0.0 0.0 0.00 0.00 0.00 96 1021.2
20260903172625 40 296 0.0 0.0 0.00 0.00 0.00 96 1021.5
20260903172121 41 295 0.0 0.0 0.00 0.00 0.00 96 1021.3
20260903171620 41 302 0.0 0.0 0.00 0.00 0.00 96 1021.4
20260903171117 41 290 0.0 0.0 0.00 0.00 0.00 95 1021.5
20260903170615 41 275 0.0 0.0 0.00 0.00 0.00 95 1021.4
20260903170111 41 258 0.0 0.0 0.00 0.00 0.00 95 1021.4
20260903165608 41 255 0.0 0.0 0.00 0.00 0.00 95 1021.2
20260903165104 41 264 0.0 1.0 0.00 0.00 0.00 95 1021.5
20260903164559 41 280 0.0 0.0 0.00 0.00 0.00 94 1021.5
20260903164055 42 287 0.0 0.0 0.00 0.00 0.00 94 1021.4
20260903163555 42 278 0.0 0.0 0.00 0.00 0.00 94 1021.5
20260903163051 42 271 0.0 0.0 0.00 0.00 0.00 94 1021.8
20260903162547 42 267 0.0 0.0 0.00 0.00 0.00 93 1021.8
20260903162043 43 252 0.0 1.0 0.00 0.00 0.00 93 1021.6
20260903161538 43 271 0.0 0.0 0.00 0.00 0.00 92 1021.9
20260903161034 43 282 0.0 0.0 0.00 0.00 0.00 92 1021.9
20260903160532 44 283 0.0 0.0 0.00 0.00 0.00 92 1021.9
20260903160027 44 246 0.0 1.0 0.00 0.00 0.00 92 1022.1
20260903155526 44 268 0.0 0.0 0.00 0.00 0.00 91 1021.9
20260903155022 44 240 0.0 0.0 0.00 0.00 0.00 91 1022.1
20260903154518 45 273 0.0 0.0 0.00 0.00 0.00 90 1022.2
20260903154014 45 263 0.0 0.0 0.00 0.00 0.00 89 1022.5
20260903153509 46 273 0.0 0.0 0.00 0.00 0.00 89 1022.3
20260903153005 46 285 0.0 0.0 0.00 0.00 0.00 88 1022.4
20260903152500 46 270 0.0 1.0 0.00 0.00 0.00 87 1022.5
20260903151957 47 277 0.0 0.0 0.00 0.00 0.00 87 1022.3
20260903151450 48 274 0.0 0.0 0.00 0.00 0.00 86 1022.4
20260903150946 48 268 0.0 0.0 0.00 0.00 0.00 86 1022.4
20260903150445 48 270 0.0 0.0 0.00 0.00 0.00 85 1022.3
20260903145940 49 279 0.0 0.0 0.00 0.00 0.00 85 1022.4
20260903145435 49 309 0.0 0.0 0.00 0.00 0.00 84 1022.3
20260903144930 50 310 0.0 0.0 0.00 0.00 0.00 84 1022.2
20260903144429 49 254 0.0 1.0 0.00 0.00 0.00 85 1022.3
20260903143925 49 271 0.0 0.0 0.00 0.00 0.00 85 1022.4
20260903143422 49 287 0.0 0.0 0.00 0.00 0.00 84 1022.6
20260903142917 50 286 0.0 0.0 0.00 0.00 0.00 84 1022.4
20260903142413 50 285 0.0 0.0 0.00 0.00 0.00 83 1022.3
20260903141909 50 274 0.0 0.0 0.00 0.00 0.00 83 1022.1
20260903141404 50 258 0.0 0.0 0.00 0.00 0.00 83 1022.3
20260903140900 50 270 0.0 0.0 0.00 0.00 0.00 82 1022.1
20260903140355 50 282 0.0 0.0 0.00 0.00 0.00 82 1022.3
20260903135850 51 267 0.0 1.0 0.00 0.00 0.00 82 1022.3
20260903135346 51 284 0.0 0.0 0.00 0.00 0.00 82 1022.4
20260903134844 51 263 0.0 1.0 0.00 0.00 0.00 82 1022.2
20260903134340 51 268 0.0 0.0 0.00 0.00 0.00 82 1022.3
20260903133837 51 297 0.0 0.0 0.00 0.00 0.00 82 1022.3
20260903133334 51 236 1.0 1.0 0.00 0.00 0.00 82 1022.5
20260903132834 50 226 1.0 2.0 0.00 0.00 0.00 83 1022.5
20260903132330 50 274 0.0 0.0 0.00 0.00 0.00 83 1022.7
20260903131824 50 290 0.0 0.0 0.00 0.00 0.00 84 1022.4
20260903131324 50 288 0.0 0.0 0.00 0.00 0.00 84 1022.3
20260903130823 50 275 0.0 0.0 0.00 0.00 0.00 84 1022.4
20260903130318 50 233 1.0 1.0 0.00 0.00 0.00 85 1022.4
20260903125817 50 294 1.0 1.0 0.00 0.00 0.00 86 1022.4
20260903125312 49 264 0.0 1.0 0.00 0.00 0.00 87 1022.4
20260903124811 49 259 0.0 0.0 0.00 0.00 0.00 87 1022.4
20260903124307 49 291 0.0 0.0 0.00 0.00 0.00 87 1022.2
20260903123806 49 277 0.0 0.0 0.00 0.00 0.00 87 1022.1
20260903123306 48 243 1.0 1.0 0.00 0.00 0.00 88 1022.1
20260903122804 48 255 0.0 1.0 0.00 0.00 0.00 88 1022.2
20260903122259 48 245 1.0 1.0 0.00 0.00 0.00 88 1021.9
20260903121757 48 248 1.0 1.0 0.00 0.00 0.00 88 1022.1
20260903121253 48 242 1.0 1.0 0.00 0.00 0.00 88 1021.9
20260903120749 48 228 1.0 1.0 0.00 0.00 0.00 89 1021.8
20260903120242 48 289 0.0 0.0 0.00 0.00 0.00 89 1022.1
20260903115740 48 270 0.0 0.0 0.00 0.07 0.07 89 1022.0
20260903115236 48 267 0.0 0.0 0.00 0.07 0.07 88 1021.8
20260903114730 48 281 0.0 0.0 0.00 0.07 0.07 88 1021.8
20260903114226 48 293 0.0 0.0 0.00 0.07 0.07 87 1021.5
20260903113721 49 270 0.0 0.0 0.00 0.07 0.07 87 1021.5
20260903113217 49 267 0.0 0.0 0.00 0.07 0.07 87 1021.4
20260903112713 49 281 0.0 0.0 0.00 0.07 0.07 86 1021.4
20260903112209 50 280 0.0 0.0 0.00 0.07 0.07 85 1021.2
20260903111707 50 296 0.0 0.0 0.00 0.07 0.07 85 1021.5
20260903111203 50 276 0.0 0.0 0.00 0.07 0.07 84 1021.3
20260903110659 51 276 0.0 0.0 0.00 0.07 0.07 84 1021.4
20260903110154 51 258 0.0 0.0 0.00 0.07 0.07 84 1021.0
20260903105654 51 254 0.0 1.0 0.00 0.07 0.07 83 1021.1
20260903105149 51 274 0.0 0.0 0.00 0.07 0.07 83 1021.1
20260903104648 51 264 0.0 0.0 0.00 0.07 0.07 83 1021.1
20260903104144 52 249 1.0 1.0 0.00 0.07 0.07 83 1020.9
20260903103639 52 138 1.0 1.0 0.00 0.07 0.07 83 1021.0
20260903103136 52 274 0.0 0.0 0.00 0.07 0.07 83 1021.0
20260903102631 52 284 0.0 0.0 0.00 0.07 0.07 83 1020.8
20260903102129 52 129 0.0 0.0 0.00 0.07 0.07 84 1020.8
20260903101624 52 249 0.0 1.0 0.00 0.07 0.07 84 1020.8
20260903101119 52 275 0.0 0.0 0.00 0.07 0.07 85 1020.6
20260903100614 51 187 0.0 0.0 0.00 0.07 0.07 86 1020.5
20260903100113 51 242 1.0 1.0 0.00 0.07 0.07 86 1020.4
20260903095611 51 296 0.0 0.0 0.00 0.07 0.07 85 1020.3
20260903095111 51 246 0.0 0.0 0.00 0.07 0.07 85 1020.4
20260903094606 51 228 0.0 0.0 0.00 0.07 0.07 85 1019.9
20260903094101 51 212 1.0 1.0 0.00 0.07 0.07 85 1020.0
20260903093556 51 282 0.0 0.0 0.00 0.07 0.07 84 1019.9
20260903093052 51 267 1.0 1.0 0.00 0.07 0.07 84 1019.7
20260903092551 51 278 0.0 0.0 0.00 0.07 0.07 84 1019.7
20260903092046 51 284 0.0 0.0 0.00 0.07 0.07 83 1019.6
20260903091544 51 124 1.0 1.0 0.00 0.07 0.07 83 1019.5
20260903091039 52 277 0.0 1.0 0.00 0.07 0.07 82 1019.6
20260903090535 52 342 0.0 0.0 0.00 0.07 0.07 82 1019.6
20260903090033 52 199 2.0 3.0 0.00 0.07 0.07 82 1019.3
20260903085532 53 304 0.0 0.0 0.00 0.07 0.07 81 1019.3
20260903085028 53 190 2.0 3.0 0.00 0.07 0.07 81 1019.2
20260903084526 53 225 0.0 1.0 0.00 0.07 0.07 80 1019.2
20260903084021 53 234 1.0 1.0 0.00 0.07 0.07 80 1019.2
20260903083517 53 252 1.0 1.0 0.00 0.07 0.07 79 1019.4
20260903083016 54 190 2.0 3.0 0.00 0.07 0.07 79 1019.4
20260903082510 54 301 2.0 2.0 0.00 0.07 0.07 79 1019.2
20260903082006 54 221 1.0 1.0 0.00 0.07 0.07 78 1019.0
20260903081501 54 225 2.0 2.0 0.00 0.07 0.07 78 1019.0
20260903080957 54 242 1.0 1.0 0.00 0.07 0.07 78 1019.0
20260903080453 55 200 0.0 1.0 0.00 0.07 0.07 77 1018.7
20260903075949 55 197 1.0 1.0 0.00 0.07 0.07 77 1018.6
20260903075444 55 221 2.0 2.0 0.00 0.07 0.07 77 1018.4
20260903074939 55 267 3.0 3.0 0.00 0.07 0.07 76 1018.7
20260903074438 56 163 1.0 1.0 0.00 0.07 0.07 75 1018.4
20260903073934 56 208 3.0 5.0 0.00 0.07 0.07 75 1018.6
20260903073428 56 22 1.0 1.0 0.00 0.07 0.07 74 1018.6
20260903072924 57 206 1.0 1.0 0.00 0.07 0.07 73 1018.4
20260903072420 57 192 3.0 3.0 0.00 0.07 0.07 73 1018.3
20260903071917 57 216 1.0 1.0 0.00 0.07 0.07 72 1018.2
20260903071413 58 193 1.0 2.0 0.00 0.07 0.07 71 1018.0
20260903070909 58 222 2.0 2.0 0.00 0.07 0.07 71 1017.9
20260903070403 59 201 2.0 2.0 0.00 0.07 0.07 70 1018.1
20260903065858 59 238 3.0 3.0 0.00 0.07 0.07 69 1017.6
20260903065357 59 221 3.0 3.0 0.00 0.07 0.07 68 1017.8
20260903064856 59 233 1.0 1.0 0.00 0.07 0.07 69 1017.7
20260903064352 60 178 3.0 5.0 0.00 0.07 0.07 68 1017.7
20260903063848 60 53 3.0 5.0 0.00 0.07 0.07 67 1017.8
20260903063343 60 245 3.0 3.0 0.00 0.07 0.07 66 1017.7
20260903062838 60 114 1.0 1.0 0.00 0.07 0.07 68 1017.5
20260903062338 60 178 2.0 3.0 0.00 0.07 0.07 68 1017.4
20260903061835 60 168 2.0 3.0 0.00 0.07 0.07 66 1017.6
20260903061333 60 238 1.0 2.0 0.00 0.07 0.07 67 1017.2
20260903060830 61 218 4.0 5.0 0.00 0.07 0.07 66 1017.1
20260903060329 61 199 4.0 5.0 0.00 0.07 0.07 65 1017.2
20260903055827 61 242 3.0 6.0 0.00 0.07 0.07 65 1017.1
20260903055325 62 327 3.0 3.0 0.00 0.07 0.07 64 1017.1
20260903054821 62 220 3.0 5.0 0.00 0.07 0.07 63 1017.1
20260903054320 62 272 4.0 7.0 0.00 0.07 0.07 63 1017.0
20260903053817 62 198 4.0 6.0 0.00 0.07 0.07 63 1016.8
20260903053312 63 241 3.0 3.0 0.00 0.07 0.07 63 1016.8
20260903052808 63 271 2.0 2.0 0.00 0.07 0.07 64 1017.1
20260903052306 63 257 5.0 8.0 0.00 0.07 0.07 62 1017.1
20260903051759 63 227 1.0 2.0 0.00 0.07 0.07 63 1016.7
20260903051254 63 287 3.0 5.0 0.00 0.07 0.07 62 1017.1
20260903050749 63 234 4.0 6.0 0.00 0.07 0.07 61 1017.0
20260903050248 64 226 4.0 5.0 0.00 0.07 0.07 60 1017.0
20260903045743 64 194 5.0 6.0 0.00 0.07 0.07 60 1017.0
20260903045239 64 230 3.0 3.0 0.00 0.07 0.07 61 1016.8
20260903044735 64 297 2.0 6.0 0.00 0.07 0.07 61 1016.6
20260903044230 64 222 2.0 3.0 0.00 0.07 0.07 62 1017.1
20260903043727 64 219 6.0 7.0 0.00 0.07 0.07 61 1017.0
20260903043227 64 249 3.0 5.0 0.00 0.07 0.07 61 1016.6
20260903042726 65 190 3.0 5.0 0.00 0.07 0.07 62 1016.4
20260903042221 65 218 4.0 5.0 0.00 0.07 0.07 62 1016.7
20260903041717 65 240 3.0 3.0 0.00 0.07 0.07 61 1016.3
20260903041213 64 171 5.0 5.0 0.00 0.07 0.07 62 1016.6
20260903040713 64 181 6.0 10.0 0.00 0.07 0.07 62 1016.3